Orbital Elements at Epoch 2459200.5 (2020-Dec-17.0) TDB
Reference: JPL 22 (heliocentric ecliptic J2000)
Element | Value | Uncertainty (1-sigma) | Units |
e | .1761077795352032 | 4.9678e-08 | |
a | 2.632405903628041 | 1.3359e-08 | au |
q | 2.168818745104747 | 1.3295e-07 | au |
i | 12.7327761718623 | 5.4718e-06 | deg |
node | 191.8781995804148 | 1.8806e-05 | deg |
peri | 158.9661144947102 | 2.3136e-05 | deg |
M | 83.1498700341858 | 1.2295e-05 | deg |
tp | 2458840.181314047581 (2019-Dec-22.68131405) | 5.2593e-05 | TDB |
period | 1560.011180889886 4.27 | 1.1875e-05 3.251e-08 | d yr |
n | .2307675768032913 | 1.7567e-09 | deg/d |
Q | 3.095993062151336 | 1.5712e-08 | au |
|
| | Orbit Determination Parameters
Additional Information
|